{"data":{"norad_id":41838,"intl_designator":"2016-065A","name":"SHIJIAN-17 (SJ-17)","alt_names":[],"object_type":"PAYLOAD","status":"ACTIVE","operator":null,"country":"PRC","launch_date":"2016-11-03","launch_site_code":"WSC","launch_vehicle":null,"mission":null,"orbit_class":"UNKNOWN","rcs_meters":19.83,"size_class":null,"mass_kg":null,"dimensions":null,"purposes":["comms"],"wikipedia_slug":null,"has_3d_model":false,"image_url":null,"decayed_at":null,"tle_current":{"epoch":"2026-09-19T21:02:34.733760Z","epoch_age_seconds":79633,"freshness":"FRESH","line1":"1 41838U 16065A   26262.87679090 -.00000203  00000+0  00000+0 0  9990","line2":"2 41838   5.9869  71.4159 0001821  73.2309 266.7334  0.99854943 36142","mean_motion":0.99854943,"eccentricity":0.0001821,"inclination_deg":5.9869,"raan_deg":71.4159,"arg_perigee_deg":73.2309,"mean_anomaly_deg":266.7334,"bstar":0,"rev_number":3614,"period_min":1442.0918551824,"perigee_km":35896.157676376,"apogee_km":35911.556778673,"semimajor_km":42281.994227525,"source":"CELESTRAK","updated_at":"2026-09-20T09:00:35.248722Z"}}}